Year,Month,Day,Hour,Minute,Value (Times are PST for temperature in C)
2012,12,03,08,36,3.90
2012,12,03,08,37,3.90
2012,12,03,08,38,3.90
2012,12,03,08,39,3.80
2012,12,03,08,40,3.80
2012,12,03,08,41,3.80
2012,12,03,08,42,3.80
2012,12,03,08,43,3.80
2012,12,03,08,44,3.80
2012,12,03,08,45,3.90
2012,12,03,08,46,3.90
2012,12,03,08,47,4.10
2012,12,03,08,48,4.20
2012,12,03,08,49,4.30
2012,12,03,08,50,4.30
2012,12,03,08,51,4.40
2012,12,03,08,52,4.40
2012,12,03,08,53,4.40
2012,12,03,08,54,4.50
2012,12,03,08,55,4.50
2012,12,03,08,56,4.60
2012,12,03,08,57,4.60
2012,12,03,08,58,4.70
2012,12,03,08,59,4.70
2012,12,03,09,00,4.60
2012,12,03,09,01,4.60
2012,12,03,09,02,4.60
2012,12,03,09,03,4.60
2012,12,03,09,04,4.60
2012,12,03,09,05,4.60
2012,12,03,09,06,4.60
2012,12,03,09,07,4.70
2012,12,03,09,08,4.70
2012,12,03,09,09,4.70
2012,12,03,09,10,4.80
2012,12,03,09,11,4.80
2012,12,03,09,12,4.80
2012,12,03,09,13,4.90
2012,12,03,09,14,4.90
2012,12,03,09,15,4.80
2012,12,03,09,16,4.80
2012,12,03,09,17,4.80
2012,12,03,09,18,4.80
2012,12,03,09,19,4.70
2012,12,03,09,20,4.70
2012,12,03,09,21,4.60
2012,12,03,09,22,4.60
2012,12,03,09,23,4.50
2012,12,03,09,24,4.50
2012,12,03,09,25,4.40
2012,12,03,09,26,4.40
2012,12,03,09,27,4.40
2012,12,03,09,28,4.40
2012,12,03,09,29,4.30
2012,12,03,09,30,4.30
2012,12,03,09,31,4.30
2012,12,03,09,32,4.40
2012,12,03,09,33,4.40
2012,12,03,09,34,4.50
2012,12,03,09,35,4.50
2012,12,03,09,36,4.60
2012,12,03,09,37,4.60
2012,12,03,09,38,4.70
2012,12,03,09,39,4.70
2012,12,03,09,40,4.80
2012,12,03,09,41,4.90
2012,12,03,09,42,5.00
2012,12,03,09,43,5.00
2012,12,03,09,44,5.10
2012,12,03,09,45,5.20
2012,12,03,09,46,5.20
2012,12,03,09,47,5.30
2012,12,03,09,48,5.30
2012,12,03,09,49,5.30
2012,12,03,09,50,5.30
2012,12,03,09,51,5.30
2012,12,03,09,52,5.30
2012,12,03,09,53,5.30
2012,12,03,09,54,5.40
2012,12,03,09,55,5.40
2012,12,03,09,56,5.40
2012,12,03,09,57,5.50
2012,12,03,09,58,5.50
2012,12,03,09,59,5.60
2012,12,03,10,00,5.60
2012,12,03,10,01,5.60
2012,12,03,10,02,5.70
2012,12,03,10,03,5.70
2012,12,03,10,04,5.80
2012,12,03,10,05,5.80
2012,12,03,10,06,5.90
2012,12,03,10,07,5.90
2012,12,03,10,08,5.90
2012,12,03,10,09,5.90
2012,12,03,10,10,5.90
2012,12,03,10,11,5.90
2012,12,03,10,12,5.80
2012,12,03,10,13,5.80
2012,12,03,10,14,5.80
2012,12,03,10,15,5.70
2012,12,03,10,16,5.70
2012,12,03,10,17,5.60
2012,12,03,10,18,5.60
2012,12,03,10,19,5.50
2012,12,03,10,20,5.50
2012,12,03,10,21,5.50
2012,12,03,10,22,5.50
2012,12,03,10,23,5.50
2012,12,03,10,24,5.50
2012,12,03,10,25,5.60
2012,12,03,10,26,5.60
2012,12,03,10,27,5.70
2012,12,03,10,28,5.70
2012,12,03,10,29,5.70
2012,12,03,10,30,5.70
2012,12,03,10,31,5.80
2012,12,03,10,32,5.80
2012,12,03,10,33,5.90
2012,12,03,10,34,5.90
2012,12,03,10,35,6.00
2012,12,03,10,36,6.10
2012,12,03,10,37,6.10
2012,12,03,10,38,6.20
2012,12,03,10,39,6.30
2012,12,03,10,40,6.40
2012,12,03,10,41,6.40
2012,12,03,10,42,6.40
2012,12,03,10,43,6.40
2012,12,03,10,44,6.40
2012,12,03,10,45,6.40
2012,12,03,10,46,6.50
2012,12,03,10,47,6.70
2012,12,03,10,48,6.80
2012,12,03,10,49,6.90
2012,12,03,10,50,6.90
2012,12,03,10,51,7.00
2012,12,03,10,52,7.10
2012,12,03,10,53,7.20
2012,12,03,10,54,7.10
2012,12,03,10,55,7.00
2012,12,03,10,56,6.90
2012,12,03,10,57,6.80
2012,12,03,10,58,6.80
2012,12,03,10,59,6.90
2012,12,03,11,00,6.90
2012,12,03,11,01,6.90
2012,12,03,11,02,6.80
2012,12,03,11,03,6.80
2012,12,03,11,04,6.80
2012,12,03,11,05,6.80
2012,12,03,11,06,6.80
2012,12,03,11,07,6.80
2012,12,03,11,08,6.90
2012,12,03,11,09,7.00
2012,12,03,11,10,7.10
2012,12,03,11,11,7.20
2012,12,03,11,12,7.20
2012,12,03,11,13,7.20
2012,12,03,11,14,7.10
2012,12,03,11,15,7.10
2012,12,03,11,16,7.10
2012,12,03,11,17,7.00
2012,12,03,11,18,7.00
2012,12,03,11,19,6.90
2012,12,03,11,20,6.90
2012,12,03,11,21,6.90
2012,12,03,11,22,6.90
2012,12,03,11,23,6.90
2012,12,03,11,24,6.90
2012,12,03,11,25,6.90
2012,12,03,11,26,6.90
2012,12,03,11,27,6.90
2012,12,03,11,28,6.90
2012,12,03,11,29,6.90
2012,12,03,11,30,6.90
2012,12,03,11,31,6.90
2012,12,03,11,32,6.90
2012,12,03,11,33,6.90
2012,12,03,11,34,7.00
2012,12,03,11,35,7.00
2012,12,03,11,36,7.00
2012,12,03,11,37,7.10
2012,12,03,11,38,7.10
2012,12,03,11,39,7.10
2012,12,03,11,40,7.20
2012,12,03,11,41,7.20
2012,12,03,11,42,7.20
2012,12,03,11,43,7.30
2012,12,03,11,44,7.30
2012,12,03,11,45,7.30
2012,12,03,11,46,7.30
2012,12,03,11,47,7.40
2012,12,03,11,48,7.40
2012,12,03,11,49,7.40
2012,12,03,11,50,7.40
2012,12,03,11,51,7.40
2012,12,03,11,52,7.40
2012,12,03,11,53,7.40
2012,12,03,11,54,7.40
2012,12,03,11,55,7.40
2012,12,03,11,56,7.40
2012,12,03,11,57,7.40
2012,12,03,11,58,7.40
2012,12,03,11,59,7.40
2012,12,03,12,00,7.40
2012,12,03,12,01,7.40
2012,12,03,12,02,7.40
2012,12,03,12,03,7.30
2012,12,03,12,04,7.40
2012,12,03,12,05,7.40
2012,12,03,12,06,7.40
2012,12,03,12,07,7.40
2012,12,03,12,08,7.40
2012,12,03,12,09,7.40
2012,12,03,12,10,7.40
2012,12,03,12,11,7.40
2012,12,03,12,12,7.40
2012,12,03,12,13,7.40
2012,12,03,12,14,7.40
2012,12,03,12,15,7.40
2012,12,03,12,16,7.50
2012,12,03,12,17,7.50
2012,12,03,12,18,7.50
2012,12,03,12,19,7.50
2012,12,03,12,20,7.50
2012,12,03,12,21,7.50
2012,12,03,12,22,7.50
2012,12,03,12,23,7.50
2012,12,03,12,24,7.50
2012,12,03,12,25,7.50
2012,12,03,12,26,7.50
2012,12,03,12,27,7.40
2012,12,03,12,28,7.40
2012,12,03,12,29,7.40
2012,12,03,12,30,7.30
2012,12,03,12,31,7.30
2012,12,03,12,32,7.30
2012,12,03,12,33,7.30
2012,12,03,12,34,7.20
2012,12,03,12,35,7.20
2012,12,03,12,36,7.20
2012,12,03,12,37,7.20
2012,12,03,12,38,7.20
2012,12,03,12,39,7.20
2012,12,03,12,40,7.20
2012,12,03,12,41,7.20
2012,12,03,12,42,7.10
2012,12,03,12,43,7.10
2012,12,03,12,44,7.10
2012,12,03,12,45,7.10
2012,12,03,12,46,7.10
2012,12,03,12,47,7.10
2012,12,03,12,48,7.00
2012,12,03,12,49,7.00
2012,12,03,12,50,7.00
2012,12,03,12,51,7.00
2012,12,03,12,52,7.00
2012,12,03,12,53,7.00
2012,12,03,12,54,7.00
2012,12,03,12,55,7.00
2012,12,03,12,56,7.00
2012,12,03,12,57,7.10
2012,12,03,12,58,7.10
2012,12,03,12,59,7.10
2012,12,03,13,00,7.10
2012,12,03,13,01,7.10
2012,12,03,13,02,7.10
2012,12,03,13,03,7.10
2012,12,03,13,04,7.20
2012,12,03,13,05,7.20
2012,12,03,13,06,7.20
2012,12,03,13,07,7.20
2012,12,03,13,08,7.20
2012,12,03,13,09,7.20
2012,12,03,13,10,7.20
2012,12,03,13,11,7.20
2012,12,03,13,12,7.20
2012,12,03,13,13,7.20
2012,12,03,13,14,7.20
2012,12,03,13,15,7.20
2012,12,03,13,16,7.20
2012,12,03,13,17,7.30
2012,12,03,13,18,7.30
2012,12,03,13,19,7.30
2012,12,03,13,20,7.30
2012,12,03,13,21,7.30
2012,12,03,13,22,7.30
2012,12,03,13,23,7.30
2012,12,03,13,24,7.30
2012,12,03,13,25,7.30
2012,12,03,13,26,7.30
2012,12,03,13,27,7.30
2012,12,03,13,28,7.30
2012,12,03,13,29,7.30
2012,12,03,13,30,7.20
2012,12,03,13,31,7.20
2012,12,03,13,32,7.30
2012,12,03,13,33,7.20
2012,12,03,13,34,7.20
2012,12,03,13,35,7.20
2012,12,03,13,36,7.20
2012,12,03,13,37,7.20
2012,12,03,13,38,7.20
2012,12,03,13,39,7.20
2012,12,03,13,40,7.20
2012,12,03,13,41,7.20
2012,12,03,13,42,7.20
2012,12,03,13,43,7.20
2012,12,03,13,44,7.20
2012,12,03,13,45,7.20
2012,12,03,13,46,7.20
2012,12,03,13,47,7.20
2012,12,03,13,48,7.20
2012,12,03,13,49,7.20
2012,12,03,13,50,7.20
2012,12,03,13,51,7.20
2012,12,03,13,52,7.20
2012,12,03,13,53,7.20
2012,12,03,13,54,7.20
2012,12,03,13,55,7.20
2012,12,03,13,56,7.20
2012,12,03,13,57,7.20
2012,12,03,13,58,7.20
2012,12,03,13,59,7.20
2012,12,03,14,00,7.20
2012,12,03,14,01,7.20
2012,12,03,14,02,7.20
2012,12,03,14,03,7.20
2012,12,03,14,04,7.20
2012,12,03,14,05,7.20
2012,12,03,14,06,7.20
2012,12,03,14,07,7.20
2012,12,03,14,08,7.20
2012,12,03,14,09,7.20
2012,12,03,14,10,7.20
2012,12,03,14,11,7.20
2012,12,03,14,12,7.20
2012,12,03,14,13,7.20
2012,12,03,14,14,7.20
2012,12,03,14,15,7.20
2012,12,03,14,16,7.20
2012,12,03,14,17,7.20
2012,12,03,14,18,7.20
2012,12,03,14,19,7.20
2012,12,03,14,20,7.20
2012,12,03,14,21,7.20
2012,12,03,14,22,7.20
2012,12,03,14,23,7.20
2012,12,03,14,24,7.20
2012,12,03,14,25,7.20
2012,12,03,14,26,7.20
2012,12,03,14,27,7.20
2012,12,03,14,28,7.20
2012,12,03,14,29,7.20
2012,12,03,14,30,7.20
2012,12,03,14,31,7.20
2012,12,03,14,32,7.20
2012,12,03,14,33,7.20
2012,12,03,14,34,7.20
2012,12,03,14,35,7.20
2012,12,03,14,36,7.20
2012,12,03,14,37,7.20
2012,12,03,14,38,7.20
2012,12,03,14,39,7.20
2012,12,03,14,40,7.10
2012,12,03,14,41,7.10
2012,12,03,14,42,7.10
2012,12,03,14,43,7.10
2012,12,03,14,44,7.10
2012,12,03,14,45,7.10
2012,12,03,14,46,7.00
2012,12,03,14,47,7.00
2012,12,03,14,48,7.00
2012,12,03,14,49,7.00
2012,12,03,14,50,7.00
2012,12,03,14,51,7.00
2012,12,03,14,52,7.00
2012,12,03,14,53,7.00
2012,12,03,14,54,6.90
2012,12,03,14,55,6.90
2012,12,03,14,56,7.00
2012,12,03,14,57,6.90
2012,12,03,14,58,6.90
2012,12,03,14,59,6.90
2012,12,03,15,00,6.90
2012,12,03,15,01,6.90
2012,12,03,15,02,6.90
2012,12,03,15,03,6.90
2012,12,03,15,04,6.90
2012,12,03,15,05,6.90
2012,12,03,15,06,6.90
2012,12,03,15,07,6.90
2012,12,03,15,08,6.90
2012,12,03,15,09,6.90
2012,12,03,15,10,6.90
2012,12,03,15,11,6.90
2012,12,03,15,12,6.90
2012,12,03,15,13,6.90
2012,12,03,15,14,6.90
2012,12,03,15,15,6.90
2012,12,03,15,16,6.90
2012,12,03,15,17,6.90
2012,12,03,15,18,6.90
2012,12,03,15,19,6.90
2012,12,03,15,20,6.90
2012,12,03,15,21,6.90
2012,12,03,15,22,6.90
2012,12,03,15,23,6.90
2012,12,03,15,24,6.90
2012,12,03,15,25,6.90
2012,12,03,15,26,6.90
2012,12,03,15,27,6.90
2012,12,03,15,28,6.90
2012,12,03,15,29,6.90
2012,12,03,15,30,6.90
2012,12,03,15,31,6.90
2012,12,03,15,32,6.90
2012,12,03,15,33,6.90
2012,12,03,15,34,6.90
2012,12,03,15,35,6.90
2012,12,03,15,36,6.90
2012,12,03,15,37,6.90
2012,12,03,15,38,6.90
2012,12,03,15,39,6.90
